Location: Eaton Estates
(41.3089°N, 82.0057°W)
Time: 16:50:02
(UTC+00:00)

FALCON 9 DEB - Pass Details

Date: 17 June 2021
Orbit: 422 x 432 km, 53.0° (Epoch: 01 August)

Event Time Altitude Azimuth Distance (km) Brightness Sun altitude
Rises 01:53:16 0° 210° (SSW) 2,387 6.8 -8.3°
Reaches altitude 10° 01:55:28 10° 202° (SSW) 1,523 5.7 -8.6°
Maximum altitude 01:58:37 35° 135° (SE) 715 3.7 -9.0°
Drops below altitude 10° 02:01:46 10° 68° (ENE) 1,526 5.6 -9.5°
Sets 02:03:58 0° 59° (ENE) 2,394 6.7 -9.8°
